Left ArrowRight Arrow

Hourly Observations for May 19, 2024

Temp ( °F °C ) Dew Point ( °F °C ) Humidity (%) Winds ( mph kmh ) Pressure ( in mb ) Visibility ( mi km ) Precip ( " mm )
12:53 am 00:53 Mostly Clear 70 21.1 65 18.3 84 84 SSW 3 6 29.88 1012 10 16 0.01 0.13
1:53 am 01:53 Mostly Cloudy 69 20.6 65 18.3 87 87 Calm 29.87 1012 10 16 0.00 0.00
2:53 am 02:53 Partly Cloudy 69 20.6 66 18.9 90 90 Calm 29.86 1011 10 16 0.00 0.00
3:10 am 03:10 Cloudy 69 20.6 66 18.9 90 90 Calm 29.87 1011 10 16 0.00 0.00
3:31 am 03:31 Mostly Cloudy 69 20.6 66 18.9 90 90 Calm 29.85 1011 10 16 0.00 0.00
3:53 am 03:53 Mostly Clear 68 20 66 18.9 93 93 Calm 29.84 1010 10 16 0.00 0.00
4:22 am 04:22 Cloudy 69 20.6 66 18.9 90 90 Calm 29.86 1011 10 16 0.00 0.00
4:53 am 04:53 Cloudy with Light Rain 69 20.6 66 18.9 90 90 Calm 29.85 1011 9 14 0.01 0.25
5:02 am 05:02 Cloudy with Light Rain 69 20.6 66 18.9 90 90 Calm 29.86 1011 10 16 0.01 0.13
5:11 am 05:11 Mostly Cloudy 69 20.6 66 18.9 90 90 VRB 5 7 29.86 1011 10 16 0.01 0.13
5:53 am 05:53 Cloudy 67 19.4 65 18.3 93 93 NE 5 7 29.86 1011 10 16 0.01 0.13
6:53 am 06:53 Cloudy with Light Rain 67 19.4 64 17.8 90 90 Calm 29.88 1012 9 14 0.01 0.25
7:53 am 07:53 Cloudy 66 18.9 65 18.3 96 96 undefined N/A 29.90 1013 10 16 0.02 0.51
8:53 am 08:53 Cloudy with Mist and Fog 67 19.4 65 18.3 93 93 VRB 5 7 29.92 1013 5 8 0.00 0.00
9:27 am 09:27 Cloudy with Mist and Fog 66 18.9 64 17.8 93 93 undefined N/A 29.95 1014 3 4 0.00 0.00
9:34 am 09:34 Cloudy with Mist and Fog 66 18.9 64 17.8 93 93 NNE 7 11 29.95 1014 4 6 0.00 0.00
9:53 am 09:53 Cloudy with Mist and Fog 66 18.9 64 17.8 93 93 VRB 5 7 29.95 1014 4 6 0.00 0.00
10:53 am 10:53 Cloudy 67 19.4 63 17.2 87 87 VRB 3 6 29.96 1015 10 16 0.00 0.00
11:53 am 11:53 Cloudy 67 19.4 62 16.7 84 84 Calm 29.97 1015 10 16 0.00 0.00
12:53 pm 12:53 Cloudy 69 20.6 62 16.7 78 78 undefined N/A 29.96 1015 10 16 0.00 0.00
1:53 pm 13:53 Cloudy 71 21.7 62 16.7 73 73 VRB 5 7 29.94 1014 10 16 0.00 0.00
2:53 pm 14:53 Cloudy 71 21.7 62 16.7 73 73 VRB 7 11 29.93 1014 10 16 0.00 0.00
4:53 pm 16:53 Cloudy 70 21.1 61 16.1 73 73 VRB 6 9 29.93 1014 10 16 0.00 0.00
5:53 pm 17:53 Cloudy 70 21.1 61 16.1 73 73 Calm 29.95 1014 10 16 0.00 0.00
6:13 pm 18:13 Cloudy 70 21.1 61 16.1 73 73 Calm 29.95 1014 10 16 0.00 0.00
6:53 pm 18:53 Cloudy 70 21.1 61 16.1 73 73 Calm 29.95 1014 10 16 0.00 0.00
7:53 pm 19:53 Cloudy 70 21.1 62 16.7 76 76 Calm 29.96 1014 10 16 0.00 0.00
8:53 pm 20:53 Cloudy 69 20.6 62 16.7 78 78 Calm 29.97 1015 10 16 0.00 0.00
9:53 pm 21:53 Cloudy 69 20.6 62 16.7 78 78 Calm 29.98 1015 10 16 0.00 0.00
10:53 pm 22:53 Cloudy 69 20.6 62 16.7 78 78 Calm 29.98 1015 10 16 0.00 0.00
11:53 pm 23:53 Clear 65 18.3 62 16.7 90 90 Calm 29.98 1015 10 16 0.00 0.00

Powered by Vaisala Xweather